Time,TemperatureF,DewpointF,PressureIn,WindDirection,WindDirectionDegrees,WindSpeedMPH,WindSpeedGustMPH,Humidity,HourlyPrecipIn,Conditions,Clouds,dailyrainin,SoftwareType,DateUTC
2013-01-29 00:03:00,56.3,55.8,28.97,South,180,5.4,5.4,98,0.00,,---,0.00,VWS V14.01,2013-01-29 06:03:00,
2013-01-29 00:08:00,56.3,55.8,28.97,South,180,6.0,6.0,98,0.00,,---,0.00,VWS V14.01,2013-01-29 06:08:00,
2013-01-29 00:13:00,56.5,55.9,28.97,South,180,10.7,10.7,98,0.00,,---,0.00,VWS V14.01,2013-01-29 06:13:00,
2013-01-29 00:18:00,56.5,55.9,28.97,SSW,202,5.6,5.6,98,0.00,,---,0.00,VWS V14.01,2013-01-29 06:18:00,
2013-01-29 00:23:00,56.3,55.8,28.97,WSW,248,5.8,5.8,98,0.00,,---,0.00,VWS V14.01,2013-01-29 06:23:00,
2013-01-29 00:29:00,56.3,55.8,28.97,SSW,202,7.2,7.2,98,0.00,,---,0.00,VWS V14.01,2013-01-29 06:29:00,
2013-01-29 00:34:00,56.3,55.8,28.97,SSE,158,8.5,8.5,98,0.00,,---,0.00,VWS V14.01,2013-01-29 06:34:00,
2013-01-29 00:39:00,56.3,55.8,28.97,SE,135,9.8,9.8,98,0.00,,---,0.00,VWS V14.01,2013-01-29 06:39:00,
2013-01-29 00:44:00,56.3,55.8,28.97,SSW,202,6.0,6.3,98,0.00,,---,0.00,VWS V14.01,2013-01-29 06:44:00,
2013-01-29 00:49:00,56.3,55.8,28.97,SW,225,3.6,6.5,98,0.00,,---,0.00,VWS V14.01,2013-01-29 06:49:00,
2013-01-29 00:54:00,56.3,55.8,28.97,SSE,158,4.3,4.3,98,0.00,,---,0.00,VWS V14.01,2013-01-29 06:54:00,
2013-01-29 00:59:00,56.3,55.8,28.97,SSW,202,7.4,7.4,98,0.00,,---,0.00,VWS V14.01,2013-01-29 06:59:00,
2013-01-29 01:04:00,56.3,55.8,28.97,SSE,158,3.8,3.8,98,0.00,,---,0.00,VWS V14.01,2013-01-29 07:04:00,
2013-01-29 01:09:00,56.7,56.1,28.97,SSW,202,5.8,5.8,98,0.00,,---,0.00,VWS V14.01,2013-01-29 07:09:00,
2013-01-29 01:15:00,56.7,56.1,28.97,SSW,202,7.6,10.7,98,0.00,,---,0.00,VWS V14.01,2013-01-29 07:15:00,
2013-01-29 01:20:00,56.8,56.3,28.94,South,180,8.5,8.5,98,0.00,,---,0.00,VWS V14.01,2013-01-29 07:20:00,
2013-01-29 01:25:00,57.0,56.5,28.94,South,180,4.9,4.9,98,0.00,,---,0.00,VWS V14.01,2013-01-29 07:25:00,
2013-01-29 01:30:00,57.2,56.6,28.94,South,180,3.4,14.1,98,0.00,,---,0.00,VWS V14.01,2013-01-29 07:30:00,
2013-01-29 01:35:00,57.4,56.8,28.94,South,180,3.8,10.5,98,0.00,,---,0.00,VWS V14.01,2013-01-29 07:35:00,
2013-01-29 01:40:00,57.2,56.6,28.94,SSW,202,8.5,8.5,98,0.00,,---,0.00,VWS V14.01,2013-01-29 07:40:00,
2013-01-29 01:45:00,57.4,56.8,28.94,SSW,202,5.8,5.8,98,0.00,,---,0.00,VWS V14.01,2013-01-29 07:45:00,
2013-01-29 01:50:00,57.4,56.8,28.94,SSW,202,12.3,12.3,98,0.00,,---,0.00,VWS V14.01,2013-01-29 07:50:00,
2013-01-29 01:55:00,57.6,57.0,28.94,SSW,202,12.5,12.5,98,0.00,,---,0.00,VWS V14.01,2013-01-29 07:55:00,
2013-01-29 02:00:00,57.6,57.0,28.94,SW,225,6.3,6.3,98,0.00,,---,0.00,VWS V14.01,2013-01-29 08:00:00,
2013-01-29 02:05:00,57.6,57.0,28.94,SSW,202,8.5,8.5,98,0.00,,---,0.00,VWS V14.01,2013-01-29 08:05:00,
2013-01-29 02:10:00,57.6,57.0,28.94,South,180,6.5,6.5,98,0.00,,---,0.00,VWS V14.01,2013-01-29 08:10:00,
2013-01-29 02:15:00,57.6,57.0,28.94,SW,225,5.4,5.6,98,0.00,,---,0.00,VWS V14.01,2013-01-29 08:15:00,
2013-01-29 02:20:00,57.6,57.0,28.94,SSW,202,3.8,3.8,98,0.00,,---,0.00,VWS V14.01,2013-01-29 08:20:00,
2013-01-29 02:25:00,57.6,57.0,28.94,SSW,202,9.6,9.6,98,0.00,,---,0.00,VWS V14.01,2013-01-29 08:25:00,
2013-01-29 02:30:00,57.7,57.2,28.94,SSW,202,6.3,8.7,98,0.00,,---,0.00,VWS V14.01,2013-01-29 08:30:00,
2013-01-29 02:35:00,57.9,57.4,28.94,SSW,202,8.1,9.6,98,0.00,,---,0.00,VWS V14.01,2013-01-29 08:35:00,
2013-01-29 02:40:00,58.1,57.5,28.94,South,180,9.8,9.8,98,0.00,,---,0.00,VWS V14.01,2013-01-29 08:40:00,
2013-01-29 02:46:00,58.1,57.5,28.91,South,180,9.6,9.6,98,0.00,,---,0.00,VWS V14.01,2013-01-29 08:46:00,
2013-01-29 02:51:00,58.1,57.5,28.91,SSW,202,6.0,12.5,98,0.00,,---,0.00,VWS V14.01,2013-01-29 08:51:00,
2013-01-29 02:56:00,58.1,57.5,28.91,SSW,202,7.4,7.4,98,0.00,,---,0.00,VWS V14.01,2013-01-29 08:56:00,
2013-01-29 03:01:00,58.1,57.5,28.91,SSW,202,11.0,11.0,98,0.00,,---,0.00,VWS V14.01,2013-01-29 09:01:00,
2013-01-29 03:06:00,58.1,57.5,28.91,South,180,5.8,5.8,98,0.00,,---,0.00,VWS V14.01,2013-01-29 09:06:00,
2013-01-29 03:11:00,58.1,57.5,28.91,SW,225,15.9,15.9,98,0.00,,---,0.00,VWS V14.01,2013-01-29 09:11:00,
2013-01-29 03:16:00,58.1,57.5,28.91,SSW,202,19.7,19.7,98,0.00,,---,0.00,VWS V14.01,2013-01-29 09:16:00,
2013-01-29 03:21:00,58.1,57.5,28.91,South,180,17.0,17.0,98,0.00,,---,0.00,VWS V14.01,2013-01-29 09:21:00,
2013-01-29 03:26:00,58.1,57.5,28.91,WSW,248,11.0,11.0,98,0.00,,---,0.00,VWS V14.01,2013-01-29 09:26:00,
2013-01-29 03:32:00,58.3,57.7,28.94,SSW,202,6.9,7.6,98,0.00,,---,0.00,VWS V14.01,2013-01-29 09:32:00,
2013-01-29 03:37:00,58.1,57.5,28.94,SW,225,5.4,5.4,98,0.00,,---,0.00,VWS V14.01,2013-01-29 09:37:00,
2013-01-29 03:42:00,58.3,57.7,28.94,South,180,6.5,13.0,98,0.00,,---,0.00,VWS V14.01,2013-01-29 09:42:00,
2013-01-29 03:47:00,58.3,57.7,28.94,SSE,158,4.3,5.4,98,0.00,,---,0.00,VWS V14.01,2013-01-29 09:47:00,
2013-01-29 03:52:00,58.3,57.7,28.94,South,180,11.0,12.3,98,0.00,,---,0.00,VWS V14.01,2013-01-29 09:52:00,
2013-01-29 03:57:00,58.3,57.7,28.94,SSW,202,17.5,17.5,98,0.00,,---,0.00,VWS V14.01,2013-01-29 09:57:00,
2013-01-29 04:02:00,58.3,57.7,28.94,SE,135,3.8,9.6,98,0.00,,---,0.00,VWS V14.01,2013-01-29 10:02:00,
2013-01-29 04:07:00,58.1,57.5,28.94,South,180,4.9,6.3,98,0.00,,---,0.00,VWS V14.01,2013-01-29 10:07:00,
2013-01-29 04:12:00,58.1,57.5,28.91,South,180,4.9,8.7,98,0.00,,---,0.00,VWS V14.01,2013-01-29 10:12:00,
2013-01-29 04:18:00,57.9,57.4,28.91,SSE,158,13.0,13.0,98,0.00,,---,0.00,VWS V14.01,2013-01-29 10:18:00,
2013-01-29 04:23:00,57.9,57.4,28.91,SW,225,4.0,5.8,98,0.00,,---,0.00,VWS V14.01,2013-01-29 10:23:00,
2013-01-29 04:28:00,57.9,57.4,28.91,SSW,202,11.2,11.2,98,0.00,,---,0.00,VWS V14.01,2013-01-29 10:28:00,
2013-01-29 04:33:00,57.9,57.4,28.91,SSW,202,6.0,6.0,98,0.00,,---,0.00,VWS V14.01,2013-01-29 10:33:00,
2013-01-29 04:38:00,57.9,57.4,28.91,South,180,7.8,7.8,98,0.00,,---,0.00,VWS V14.01,2013-01-29 10:38:00,
2013-01-29 04:43:00,57.9,57.4,28.91,South,180,3.8,5.6,98,0.00,,---,0.00,VWS V14.01,2013-01-29 10:43:00,
2013-01-29 04:48:00,57.7,57.2,28.91,South,180,3.4,3.4,98,0.00,,---,0.00,VWS V14.01,2013-01-29 10:48:00,
2013-01-29 04:53:00,57.7,57.2,28.91,South,180,6.5,6.5,98,0.00,,---,0.00,VWS V14.01,2013-01-29 10:53:00,
2013-01-29 04:58:00,57.7,57.2,28.91,SW,225,3.8,3.8,98,0.00,,---,0.00,VWS V14.01,2013-01-29 10:58:00,
2013-01-29 05:03:00,57.7,57.2,28.91,South,180,3.1,3.1,98,0.00,,---,0.00,VWS V14.01,2013-01-29 11:03:00,
2013-01-29 05:08:00,57.6,57.0,28.91,SW,225,7.8,7.8,98,0.00,,---,0.00,VWS V14.01,2013-01-29 11:08:00,
2013-01-29 05:13:00,57.7,57.2,28.88,SSW,202,7.6,8.1,98,0.00,,---,0.00,VWS V14.01,2013-01-29 11:13:00,
2013-01-29 05:18:00,57.6,57.0,28.88,South,180,8.1,8.1,98,0.00,,---,0.00,VWS V14.01,2013-01-29 11:18:00,
2013-01-29 05:23:00,57.6,57.0,28.88,South,180,11.0,11.0,98,0.00,,---,0.00,VWS V14.01,2013-01-29 11:23:00,
2013-01-29 05:29:00,57.6,57.0,28.88,South,180,8.1,8.1,98,0.00,,---,0.00,VWS V14.01,2013-01-29 11:29:00,
2013-01-29 05:34:00,57.6,57.0,28.88,SE,135,10.7,10.7,98,0.00,,---,0.00,VWS V14.01,2013-01-29 11:34:00,
2013-01-29 05:39:00,57.6,57.0,28.88,South,180,9.8,9.8,98,0.00,,---,0.00,VWS V14.01,2013-01-29 11:39:00,
2013-01-29 05:44:00,57.6,57.0,28.88,SSW,202,8.1,8.1,98,0.00,,---,0.00,VWS V14.01,2013-01-29 11:44:00,
2013-01-29 05:49:00,57.7,57.2,28.88,SSW,202,11.9,11.9,98,0.00,,---,0.00,VWS V14.01,2013-01-29 11:49:00,
2013-01-29 05:54:00,57.7,57.2,28.88,South,180,7.8,8.5,98,0.00,,---,0.00,VWS V14.01,2013-01-29 11:54:00,
2013-01-29 05:59:00,57.7,57.2,28.88,SE,135,5.4,7.8,98,0.00,,---,0.00,VWS V14.01,2013-01-29 11:59:00,
2013-01-29 06:04:00,57.7,57.2,28.88,SW,225,6.5,7.2,98,0.00,,---,0.00,VWS V14.01,2013-01-29 12:04:00,
2013-01-29 06:09:00,57.6,57.0,28.88,South,180,6.3,6.3,98,0.00,,---,0.00,VWS V14.01,2013-01-29 12:09:00,
2013-01-29 06:14:00,57.7,57.2,28.88,SSW,202,6.5,8.1,98,0.00,,---,0.00,VWS V14.01,2013-01-29 12:14:00,
2013-01-29 06:19:00,57.7,57.2,28.88,South,180,5.6,5.6,98,0.00,,---,0.00,VWS V14.01,2013-01-29 12:19:00,
2013-01-29 06:24:00,57.7,57.2,28.88,SW,225,6.0,6.0,98,0.00,,---,0.00,VWS V14.01,2013-01-29 12:24:00,
2013-01-29 06:29:00,57.7,57.2,28.88,South,180,3.6,5.8,98,0.00,,---,0.00,VWS V14.01,2013-01-29 12:29:00,
2013-01-29 06:34:00,57.7,57.2,28.88,SSW,202,8.1,8.1,98,0.00,,---,0.00,VWS V14.01,2013-01-29 12:34:00,
2013-01-29 06:39:00,57.7,57.2,28.88,South,180,6.7,6.7,98,0.00,,---,0.00,VWS V14.01,2013-01-29 12:39:00,
2013-01-29 06:44:00,57.6,57.0,28.88,South,180,4.0,4.0,98,0.00,,---,0.00,VWS V14.01,2013-01-29 12:44:00,
2013-01-29 06:49:00,57.6,57.0,28.88,SSW,202,3.1,3.1,98,0.00,,---,0.00,VWS V14.01,2013-01-29 12:49:00,
2013-01-29 06:54:00,57.6,57.0,28.88,SSE,158,7.8,7.8,98,0.00,,---,0.00,VWS V14.01,2013-01-29 12:54:00,
2013-01-29 06:59:00,57.6,57.0,28.88,South,180,7.6,7.6,98,0.00,,---,0.00,VWS V14.01,2013-01-29 12:59:00,
2013-01-29 07:04:00,57.7,57.2,28.85,South,180,4.7,4.7,98,0.00,,---,0.00,VWS V14.01,2013-01-29 13:04:00,
2013-01-29 07:10:00,57.7,57.2,28.85,South,180,6.0,6.0,98,0.00,,---,0.00,VWS V14.01,2013-01-29 13:10:00,
2013-01-29 07:15:00,57.7,57.2,28.85,South,180,7.4,7.4,98,0.00,,---,0.00,VWS V14.01,2013-01-29 13:15:00,
2013-01-29 07:20:00,57.7,57.2,28.88,SSE,158,6.0,6.3,98,0.00,,---,0.00,VWS V14.01,2013-01-29 13:20:00,
2013-01-29 07:25:00,57.9,57.4,28.88,SW,225,6.5,6.5,98,0.00,,---,0.00,VWS V14.01,2013-01-29 13:25:00,
2013-01-29 07:30:00,57.9,57.4,28.88,SSW,202,6.5,6.5,98,0.00,,---,0.00,VWS V14.01,2013-01-29 13:30:00,
2013-01-29 07:35:00,57.9,57.4,28.88,SSW,202,6.7,6.7,98,0.00,,---,0.00,VWS V14.01,2013-01-29 13:35:00,
2013-01-29 07:40:00,57.9,57.4,28.88,South,180,5.8,5.8,98,0.00,,---,0.00,VWS V14.01,2013-01-29 13:40:00,
2013-01-29 07:45:00,57.9,57.4,28.88,South,180,7.4,7.4,98,0.00,,---,0.00,VWS V14.01,2013-01-29 13:45:00,
2013-01-29 07:50:00,57.9,57.4,28.88,South,180,10.1,10.7,98,0.00,,---,0.00,VWS V14.01,2013-01-29 13:50:00,
2013-01-29 07:55:00,58.1,57.5,28.88,SSW,202,2.9,6.5,98,0.00,,---,0.00,VWS V14.01,2013-01-29 13:55:00,
2013-01-29 08:01:00,57.9,57.4,28.85,SSW,202,8.7,8.7,98,0.00,,---,0.00,VWS V14.01,2013-01-29 14:01:00,
2013-01-29 08:06:00,58.1,57.5,28.85,South,180,4.9,7.8,98,0.00,,---,0.00,VWS V14.01,2013-01-29 14:06:00,
2013-01-29 08:11:00,58.1,57.5,28.85,SSW,202,4.0,6.9,98,0.00,,---,0.00,VWS V14.01,2013-01-29 14:11:00,
2013-01-29 08:16:00,58.1,57.5,28.88,SSW,202,7.6,7.6,98,0.00,,---,0.00,VWS V14.01,2013-01-29 14:16:00,
2013-01-29 08:21:00,58.3,57.7,28.88,South,180,5.6,8.5,98,0.00,,---,0.00,VWS V14.01,2013-01-29 14:21:00,
2013-01-29 08:26:00,58.5,57.9,28.88,SSW,202,6.3,6.3,98,0.00,,---,0.00,VWS V14.01,2013-01-29 14:26:00,
2013-01-29 08:31:00,58.5,57.9,28.88,SSW,202,4.9,8.7,98,0.00,,---,0.00,VWS V14.01,2013-01-29 14:31:00,
2013-01-29 08:36:00,58.5,57.9,28.88,SSW,202,5.8,6.3,98,0.00,,---,0.00,VWS V14.01,2013-01-29 14:36:00,
2013-01-29 08:41:00,58.5,57.9,28.88,SSW,202,3.8,3.8,98,0.00,,---,0.00,VWS V14.01,2013-01-29 14:41:00,
2013-01-29 08:46:00,58.5,57.9,28.85,SSW,202,5.6,5.6,98,0.00,,---,0.00,VWS V14.01,2013-01-29 14:46:00,
2013-01-29 08:51:00,58.6,58.1,28.85,South,180,2.5,4.3,98,0.00,,---,0.00,VWS V14.01,2013-01-29 14:51:00,
2013-01-29 08:56:00,58.6,58.1,28.85,SSW,202,5.6,5.6,98,0.00,,---,0.00,VWS V14.01,2013-01-29 14:56:00,
2013-01-29 09:01:00,58.8,58.3,28.85,South,180,2.7,3.6,98,0.00,,---,0.00,VWS V14.01,2013-01-29 15:01:00,
2013-01-29 09:07:00,58.8,58.3,28.85,SSE,158,3.6,3.8,98,0.00,,---,0.00,VWS V14.01,2013-01-29 15:07:00,
2013-01-29 09:12:00,59.0,58.4,28.85,South,180,6.0,6.0,98,0.00,,---,0.00,VWS V14.01,2013-01-29 15:12:00,
2013-01-29 09:17:00,59.2,58.6,28.85,SSW,202,3.4,5.4,98,0.00,,---,0.00,VWS V14.01,2013-01-29 15:17:00,
2013-01-29 09:22:00,59.2,58.3,28.85,SE,135,5.4,5.4,97,0.00,,---,0.00,VWS V14.01,2013-01-29 15:22:00,
2013-01-29 09:27:00,59.4,58.5,28.85,SSW,202,5.6,7.6,97,0.00,,---,0.00,VWS V14.01,2013-01-29 15:27:00,
2013-01-29 09:32:00,59.5,59.0,28.85,SSW,202,4.0,4.0,98,0.00,,---,0.00,VWS V14.01,2013-01-29 15:32:00,
2013-01-29 09:37:00,59.9,59.3,28.85,South,180,4.3,4.3,98,0.00,,---,0.00,VWS V14.01,2013-01-29 15:37:00,
2013-01-29 09:42:00,60.1,59.5,28.85,SE,135,6.0,6.0,98,0.00,,---,0.00,VWS V14.01,2013-01-29 15:42:00,
2013-01-29 09:47:00,60.3,59.7,28.85,South,180,7.6,7.6,98,0.00,,---,0.00,VWS V14.01,2013-01-29 15:47:00,
2013-01-29 09:52:00,60.4,59.6,28.85,SSW,202,5.4,5.4,97,0.00,,---,0.00,VWS V14.01,2013-01-29 15:52:00,
2013-01-29 09:57:00,60.6,59.8,28.85,SSE,158,5.8,7.6,97,0.00,,---,0.00,VWS V14.01,2013-01-29 15:57:00,
2013-01-29 10:02:00,61.0,60.1,28.85,SSW,202,6.0,6.0,97,0.00,,---,0.00,VWS V14.01,2013-01-29 16:02:00,
2013-01-29 10:07:00,61.2,60.3,28.85,SSW,202,6.5,6.5,97,0.00,,---,0.00,VWS V14.01,2013-01-29 16:07:00,
2013-01-29 10:12:00,61.3,60.5,28.85,SSW,202,7.2,7.2,97,0.00,,---,0.00,VWS V14.01,2013-01-29 16:12:00,
2013-01-29 10:18:00,61.5,60.7,28.85,SW,225,3.4,5.8,97,0.00,,---,0.00,VWS V14.01,2013-01-29 16:18:00,
2013-01-29 10:23:00,61.7,60.8,28.85,SSW,202,6.7,7.8,97,0.00,,---,0.00,VWS V14.01,2013-01-29 16:23:00,
2013-01-29 10:28:00,61.7,60.8,28.85,SSW,202,4.3,7.2,97,0.00,,---,0.00,VWS V14.01,2013-01-29 16:28:00,
2013-01-29 10:33:00,61.9,61.0,28.85,South,180,8.7,8.7,97,0.00,,---,0.00,VWS V14.01,2013-01-29 16:33:00,
2013-01-29 10:38:00,62.2,61.1,28.85,WSW,248,7.2,7.2,96,0.00,,---,0.00,VWS V14.01,2013-01-29 16:38:00,
2013-01-29 10:43:00,62.4,61.3,28.85,SSE,158,6.0,6.0,96,0.00,,---,0.00,VWS V14.01,2013-01-29 16:43:00,
2013-01-29 10:48:00,62.4,61.3,28.85,SW,225,2.9,4.3,96,0.00,,---,0.00,VWS V14.01,2013-01-29 16:48:00,
2013-01-29 10:53:00,62.4,61.3,28.85,SW,225,7.8,7.8,96,0.00,,---,0.00,VWS V14.01,2013-01-29 16:53:00,
2013-01-29 10:58:00,62.6,61.5,28.85,SSW,202,4.3,7.8,96,0.00,,---,0.00,VWS V14.01,2013-01-29 16:58:00,
2013-01-29 11:03:00,62.8,61.3,28.85,SSE,158,3.4,4.3,95,0.00,,---,0.00,VWS V14.01,2013-01-29 17:03:00,
2013-01-29 11:08:00,63.0,61.5,28.85,South,180,3.4,3.4,95,0.00,,---,0.00,VWS V14.01,2013-01-29 17:08:00,
2013-01-29 11:13:00,63.0,61.5,28.85,SSW,202,14.1,14.1,95,0.00,,---,0.00,VWS V14.01,2013-01-29 17:13:00,
2013-01-29 11:18:00,63.0,61.5,28.82,SW,225,2.9,5.8,95,0.00,,---,0.00,VWS V14.01,2013-01-29 17:18:00,
2013-01-29 11:23:00,63.3,61.9,28.82,SSW,202,9.4,10.1,95,0.00,,---,0.00,VWS V14.01,2013-01-29 17:23:00,
2013-01-29 11:28:00,63.5,62.0,28.82,SSW,202,11.2,11.2,95,0.00,,---,0.00,VWS V14.01,2013-01-29 17:28:00,
2013-01-29 11:33:00,63.5,62.0,28.82,SW,225,6.3,7.6,95,0.00,,---,0.00,VWS V14.01,2013-01-29 17:33:00,
2013-01-29 11:38:00,63.7,61.9,28.82,South,180,6.0,9.4,94,0.00,,---,0.00,VWS V14.01,2013-01-29 17:38:00,
2013-01-29 11:43:00,63.7,61.9,28.82,SSW,202,7.6,7.6,94,0.00,,---,0.00,VWS V14.01,2013-01-29 17:43:00,
2013-01-29 11:48:00,63.5,61.8,28.82,SSW,202,3.6,12.5,94,0.00,,---,0.00,VWS V14.01,2013-01-29 17:48:00,
2013-01-29 11:54:00,63.5,61.8,28.82,South,180,5.8,5.8,94,0.00,,---,0.00,VWS V14.01,2013-01-29 17:54:00,
2013-01-29 11:59:00,63.3,61.6,28.82,SSW,202,8.5,8.5,94,0.00,,---,0.00,VWS V14.01,2013-01-29 17:59:00,
2013-01-29 12:04:00,63.1,61.4,28.82,South,180,5.6,5.6,94,0.00,,---,0.00,VWS V14.01,2013-01-29 18:04:00,
2013-01-29 12:09:00,63.0,61.2,28.82,SSE,158,5.8,5.8,94,0.00,,---,0.00,VWS V14.01,2013-01-29 18:09:00,
2013-01-29 12:14:00,62.8,61.0,28.82,South,180,7.6,8.5,94,0.00,,---,0.00,VWS V14.01,2013-01-29 18:14:00,
2013-01-29 12:19:00,62.6,60.8,28.79,South,180,2.9,5.4,94,0.00,,---,0.00,VWS V14.01,2013-01-29 18:19:00,
2013-01-29 12:24:00,62.2,60.5,28.79,SSW,202,5.4,8.1,94,0.00,,---,0.00,VWS V14.01,2013-01-29 18:24:00,
2013-01-29 12:30:00,62.2,60.5,28.79,SSE,158,4.5,6.0,94,0.00,,---,0.00,VWS V14.01,2013-01-29 18:30:00,
2013-01-29 12:35:00,61.9,60.1,28.76,SSW,202,10.1,10.1,94,0.00,,---,0.00,VWS V14.01,2013-01-29 18:35:00,
2013-01-29 12:40:00,61.7,60.0,28.76,SSW,202,6.3,11.0,94,0.00,,---,0.00,VWS V14.01,2013-01-29 18:40:00,
2013-01-29 12:45:00,61.7,60.0,28.76,SSW,202,13.2,13.2,94,0.00,,---,0.00,VWS V14.01,2013-01-29 18:45:00,
2013-01-29 12:50:00,61.7,60.0,28.76,SSW,202,6.0,6.0,94,0.00,,---,0.00,VWS V14.01,2013-01-29 18:50:00,
2013-01-29 12:55:00,61.5,59.8,28.76,South,180,3.1,6.5,94,0.00,,---,0.00,VWS V14.01,2013-01-29 18:55:00,
2013-01-29 13:00:00,61.5,59.8,28.76,SW,225,5.8,6.3,94,0.00,,---,0.00,VWS V14.01,2013-01-29 19:00:00,
2013-01-29 13:05:00,61.7,60.0,28.76,South,180,9.8,9.8,94,0.00,,---,0.00,VWS V14.01,2013-01-29 19:05:00,
2013-01-29 13:10:00,61.7,60.0,28.76,South,180,4.0,13.2,94,0.00,,---,0.00,VWS V14.01,2013-01-29 19:10:00,
2013-01-29 13:15:00,61.7,60.0,28.73,South,180,7.6,7.6,94,0.00,,---,0.00,VWS V14.01,2013-01-29 19:15:00,
2013-01-29 13:20:00,61.9,60.1,28.73,South,180,7.6,8.5,94,0.00,,---,0.00,VWS V14.01,2013-01-29 19:20:00,
2013-01-29 13:25:00,61.9,60.1,28.73,South,180,9.4,9.4,94,0.00,,---,0.00,VWS V14.01,2013-01-29 19:25:00,
2013-01-29 13:30:00,61.9,60.1,28.73,South,180,6.5,6.5,94,0.00,,---,0.00,VWS V14.01,2013-01-29 19:30:00,
2013-01-29 13:35:00,62.2,60.5,28.73,SSW,202,14.1,14.1,94,0.00,,---,0.00,VWS V14.01,2013-01-29 19:35:00,
2013-01-29 13:40:00,62.4,60.7,28.73,South,180,7.4,13.6,94,0.00,,---,0.00,VWS V14.01,2013-01-29 19:40:00,
2013-01-29 13:45:00,62.8,61.0,28.70,SSW,202,3.4,3.4,94,0.00,,---,0.00,VWS V14.01,2013-01-29 19:45:00,
2013-01-29 13:50:00,63.0,60.9,28.70,SW,225,4.9,11.4,93,0.00,,---,0.00,VWS V14.01,2013-01-29 19:50:00,
2013-01-29 13:55:00,63.0,60.9,28.70,SSW,202,5.4,10.5,93,0.00,,---,0.00,VWS V14.01,2013-01-29 19:55:00,
2013-01-29 13:58:00,63.0,60.9,28.70,SE,135,4.9,6.9,93,0.00,,---,0.00,VWS V14.01,2013-01-29 19:58:00,
2013-01-29 14:03:00,63.0,60.9,28.70,SW,225,3.1,10.7,93,0.00,,---,0.00,VWS V14.01,2013-01-29 20:03:00,
2013-01-29 14:08:00,63.0,60.9,28.70,SSW,202,6.0,7.4,93,0.00,,---,0.00,VWS V14.01,2013-01-29 20:08:00,
2013-01-29 14:13:00,63.0,60.9,28.70,South,180,11.9,11.9,93,0.00,,---,0.00,VWS V14.01,2013-01-29 20:13:00,
2013-01-29 14:18:00,63.0,60.9,28.70,SSW,202,7.8,8.1,93,0.00,,---,0.00,VWS V14.01,2013-01-29 20:18:00,
2013-01-29 14:24:00,63.0,60.9,28.70,WSW,248,7.6,8.5,93,0.00,,---,0.00,VWS V14.01,2013-01-29 20:24:00,
2013-01-29 14:29:00,63.0,60.9,28.70,South,180,4.7,4.7,93,0.00,,---,0.00,VWS V14.01,2013-01-29 20:29:00,
2013-01-29 14:34:00,62.8,60.7,28.70,South,180,7.8,7.8,93,0.00,,---,0.00,VWS V14.01,2013-01-29 20:34:00,
2013-01-29 14:39:00,63.0,60.9,28.70,SW,225,5.8,6.3,93,0.00,,---,0.00,VWS V14.01,2013-01-29 20:39:00,
2013-01-29 14:44:00,62.1,59.1,28.70,West,270,9.6,9.6,90,0.00,,---,0.00,VWS V14.01,2013-01-29 20:44:00,
2013-01-29 14:49:00,60.6,57.0,28.73,SW,225,9.0,9.0,88,0.00,,---,0.00,VWS V14.01,2013-01-29 20:49:00,
2013-01-29 14:54:00,60.3,57.0,28.73,WSW,248,3.8,10.5,89,0.00,,---,0.00,VWS V14.01,2013-01-29 20:54:00,
2013-01-29 14:59:00,59.4,56.7,28.73,West,270,5.4,5.4,91,0.00,,---,0.00,VWS V14.01,2013-01-29 20:59:00,
2013-01-29 15:04:00,58.8,56.5,28.73,NW,315,3.4,3.6,92,0.00,,---,0.00,VWS V14.01,2013-01-29 21:04:00,
2013-01-29 15:09:00,58.5,56.5,28.73,NNW,338,1.1,1.1,93,0.00,,---,0.00,VWS V14.01,2013-01-29 21:09:00,
2013-01-29 15:14:00,58.1,56.4,28.73,SW,225,0.0,1.6,94,0.00,,---,0.00,VWS V14.01,2013-01-29 21:14:00,
2013-01-29 15:19:00,57.9,56.2,28.73,West,270,0.0,0.0,94,0.00,,---,0.00,VWS V14.01,2013-01-29 21:19:00,
2013-01-29 15:24:00,57.7,56.3,28.73,West,270,0.0,0.0,95,0.00,,---,0.00,VWS V14.01,2013-01-29 21:24:00,
2013-01-29 15:30:00,57.6,56.1,28.73,ENE,68,0.0,0.0,95,0.00,,---,0.00,VWS V14.01,2013-01-29 21:30:00,
2013-01-29 15:35:00,57.2,56.1,28.73,East,90,1.1,1.1,96,0.00,,---,0.00,VWS V14.01,2013-01-29 21:35:00,
2013-01-29 15:40:00,57.2,56.1,28.73,ENE,68,0.0,0.0,96,0.00,,---,0.00,VWS V14.01,2013-01-29 21:40:00,
2013-01-29 15:45:00,57.2,56.1,28.73,ENE,68,0.0,0.0,96,0.00,,---,0.00,VWS V14.01,2013-01-29 21:45:00,
2013-01-29 15:50:00,57.2,56.1,28.70,ENE,68,0.0,0.0,96,0.00,,---,0.00,VWS V14.01,2013-01-29 21:50:00,
2013-01-29 15:55:00,57.0,56.2,28.70,SSW,202,1.6,2.2,97,0.00,,---,0.00,VWS V14.01,2013-01-29 21:55:00,
2013-01-29 16:00:00,57.0,56.2,28.70,SW,225,0.0,0.0,97,0.00,,---,0.00,VWS V14.01,2013-01-29 22:00:00,
2013-01-29 16:05:00,56.8,56.0,28.70,WSW,248,2.0,2.0,97,0.00,,---,0.00,VWS V14.01,2013-01-29 22:05:00,
2013-01-29 16:10:00,56.8,56.0,28.70,WNW,292,0.0,0.0,97,0.00,,---,0.00,VWS V14.01,2013-01-29 22:10:00,
2013-01-29 16:15:00,56.7,55.8,28.70,North,0,2.0,2.0,97,0.00,,---,0.00,VWS V14.01,2013-01-29 22:15:00,
2013-01-29 16:20:00,56.8,56.0,28.70,WNW,292,2.9,2.9,97,0.00,,---,0.00,VWS V14.01,2013-01-29 22:20:00,
2013-01-29 16:25:00,56.7,55.8,28.70,NW,315,1.3,3.1,97,0.00,,---,0.00,VWS V14.01,2013-01-29 22:25:00,
2013-01-29 16:30:00,56.5,55.6,28.70,NNW,338,3.4,3.4,97,0.00,,---,0.00,VWS V14.01,2013-01-29 22:30:00,
2013-01-29 16:36:00,56.5,55.9,28.70,SW,225,2.2,3.4,98,0.00,,---,0.00,VWS V14.01,2013-01-29 22:36:00,
2013-01-29 16:41:00,56.5,55.9,28.70,NW,315,2.9,2.9,98,0.00,,---,0.00,VWS V14.01,2013-01-29 22:41:00,
2013-01-29 16:46:00,56.3,55.8,28.70,North,0,1.1,2.9,98,0.00,,---,0.00,VWS V14.01,2013-01-29 22:46:00,
2013-01-29 16:51:00,56.3,55.8,28.70,NNW,338,3.1,3.1,98,0.00,,---,0.00,VWS V14.01,2013-01-29 22:51:00,
2013-01-29 16:56:00,56.3,55.8,28.70,NW,315,1.6,1.6,98,0.00,,---,0.00,VWS V14.01,2013-01-29 22:56:00,
2013-01-29 17:01:00,56.3,55.8,28.70,WNW,292,0.0,0.0,98,0.00,,---,0.00,VWS V14.01,2013-01-29 23:01:00,
2013-01-29 17:06:00,56.3,55.8,28.70,NW,315,3.1,3.1,98,0.00,,---,0.00,VWS V14.01,2013-01-29 23:06:00,
2013-01-29 17:11:00,56.1,55.6,28.70,NNW,338,2.9,2.9,98,0.00,,---,0.00,VWS V14.01,2013-01-29 23:11:00,
2013-01-29 17:16:00,56.1,55.6,28.70,NNW,338,1.6,1.6,98,0.00,,---,0.00,VWS V14.01,2013-01-29 23:16:00,
2013-01-29 17:21:00,56.1,55.6,28.70,NNW,338,1.3,1.3,98,0.00,,---,0.00,VWS V14.01,2013-01-29 23:21:00,
2013-01-29 17:26:00,55.9,55.4,28.70,NNW,338,1.1,1.1,98,0.00,,---,0.00,VWS V14.01,2013-01-29 23:26:00,
2013-01-29 17:31:00,55.9,55.4,28.70,NW,315,2.0,2.0,98,0.00,,---,0.00,VWS V14.01,2013-01-29 23:31:00,
2013-01-29 17:37:00,55.9,55.4,28.70,NNW,338,0.0,0.0,98,0.00,,---,0.00,VWS V14.01,2013-01-29 23:37:00,
2013-01-29 17:42:00,55.9,55.4,28.70,WNW,292,0.0,1.3,98,0.00,,---,0.00,VWS V14.01,2013-01-29 23:42:00,
2013-01-29 17:47:00,55.8,55.2,28.70,WNW,292,1.6,1.6,98,0.00,,---,0.00,VWS V14.01,2013-01-29 23:47:00,
2013-01-29 17:52:00,55.8,55.2,28.70,NNW,338,0.0,0.0,98,0.00,,---,0.00,VWS V14.01,2013-01-29 23:52:00,
2013-01-29 17:57:00,55.8,55.2,28.70,WNW,292,0.0,1.3,98,0.00,,---,0.00,VWS V14.01,2013-01-29 23:57:00,
2013-01-29 18:02:00,55.8,55.2,28.70,WNW,292,1.3,1.3,98,0.00,,---,0.00,VWS V14.01,2013-01-30 00:02:00,
2013-01-29 18:07:00,55.6,55.0,28.70,WNW,292,0.0,0.0,98,0.00,,---,0.00,VWS V14.01,2013-01-30 00:07:00,
2013-01-29 18:12:00,55.6,55.0,28.70,WNW,292,0.0,0.0,98,0.00,,---,0.00,VWS V14.01,2013-01-30 00:12:00,
2013-01-29 18:17:00,55.4,54.8,28.70,WNW,292,0.0,0.0,98,0.00,,---,0.00,VWS V14.01,2013-01-30 00:17:00,
2013-01-29 18:22:00,55.4,54.8,28.70,WNW,292,0.0,0.0,98,0.00,,---,0.00,VWS V14.01,2013-01-30 00:22:00,
2013-01-29 18:27:00,55.2,54.7,28.70,WNW,292,0.0,0.0,98,0.00,,---,0.00,VWS V14.01,2013-01-30 00:27:00,
2013-01-29 18:32:00,55.0,54.5,28.70,WNW,292,0.0,0.0,98,0.00,,---,0.00,VWS V14.01,2013-01-30 00:32:00,
2013-01-29 18:37:00,55.0,54.5,28.70,NNW,338,0.0,0.0,98,0.00,,---,0.00,VWS V14.01,2013-01-30 00:37:00,
2013-01-29 18:42:00,55.0,54.5,28.70,NNW,338,0.0,0.0,98,0.00,,---,0.00,VWS V14.01,2013-01-30 00:42:00,
2013-01-29 18:48:00,54.9,54.3,28.70,NNW,338,0.0,0.0,98,0.00,,---,0.00,VWS V14.01,2013-01-30 00:48:00,
2013-01-29 18:53:00,54.9,54.3,28.70,NNW,338,0.0,0.0,98,0.00,,---,0.00,VWS V14.01,2013-01-30 00:53:00,
2013-01-29 18:58:00,54.7,54.1,28.70,NNW,338,0.0,0.0,98,0.00,,---,0.00,VWS V14.01,2013-01-30 00:58:00,
2013-01-29 19:03:00,54.7,54.1,28.70,NNW,338,0.0,0.0,98,0.00,,---,0.00,VWS V14.01,2013-01-30 01:03:00,
2013-01-29 19:08:00,54.5,54.0,28.70,NNW,338,0.0,0.0,98,0.00,,---,0.00,VWS V14.01,2013-01-30 01:08:00,
2013-01-29 19:13:00,54.3,53.8,28.70,NNW,338,0.0,0.0,98,0.00,,---,0.00,VWS V14.01,2013-01-30 01:13:00,
2013-01-29 19:18:00,54.3,53.8,28.70,NNW,338,0.0,0.0,98,0.00,,---,0.00,VWS V14.01,2013-01-30 01:18:00,
2013-01-29 19:23:00,54.3,53.8,28.70,NNW,338,0.0,0.0,98,0.00,,---,0.00,VWS V14.01,2013-01-30 01:23:00,
2013-01-29 19:28:00,54.3,53.8,28.70,NNW,338,0.0,0.0,98,0.00,,---,0.00,VWS V14.01,2013-01-30 01:28:00,
2013-01-29 19:33:00,54.1,53.6,28.70,NNW,338,0.0,0.0,98,0.00,,---,0.00,VWS V14.01,2013-01-30 01:33:00,
2013-01-29 19:38:00,54.0,53.4,28.70,NNW,338,0.0,0.0,98,0.00,,---,0.00,VWS V14.01,2013-01-30 01:38:00,
2013-01-29 19:43:00,54.0,53.4,28.70,NNW,338,1.1,1.1,98,0.00,,---,0.00,VWS V14.01,2013-01-30 01:43:00,
2013-01-29 19:48:00,54.1,53.6,28.70,NNW,338,0.0,0.0,98,0.00,,---,0.00,VWS V14.01,2013-01-30 01:48:00,
2013-01-29 19:53:00,54.0,53.4,28.70,SE,135,1.1,1.3,98,0.00,,---,0.00,VWS V14.01,2013-01-30 01:53:00,
2013-01-29 19:58:00,54.0,53.4,28.70,East,90,1.3,2.2,98,0.00,,---,0.00,VWS V14.01,2013-01-30 01:58:00,
2013-01-29 20:03:00,54.0,53.4,28.67,East,90,0.0,0.0,98,0.00,,---,0.00,VWS V14.01,2013-01-30 02:03:00,
2013-01-29 20:08:00,54.0,53.4,28.67,East,90,0.0,0.0,98,0.00,,---,0.00,VWS V14.01,2013-01-30 02:08:00,
2013-01-29 20:13:00,54.0,53.4,28.67,East,90,0.0,0.0,98,0.00,,---,0.00,VWS V14.01,2013-01-30 02:13:00,
2013-01-29 20:18:00,54.0,53.4,28.67,East,90,0.0,0.0,98,0.00,,---,0.00,VWS V14.01,2013-01-30 02:18:00,
2013-01-29 20:23:00,54.0,53.4,28.67,East,90,0.0,0.0,98,0.00,,---,0.00,VWS V14.01,2013-01-30 02:23:00,
2013-01-29 20:28:00,53.8,53.2,28.67,ENE,68,0.0,0.0,98,0.00,,---,0.00,VWS V14.01,2013-01-30 02:28:00,
2013-01-29 20:33:00,53.6,53.0,28.67,ENE,68,0.0,0.0,98,0.00,,---,0.00,VWS V14.01,2013-01-30 02:33:00,
2013-01-29 20:39:00,53.6,53.0,28.67,ENE,68,0.0,0.0,98,0.00,,---,0.00,VWS V14.01,2013-01-30 02:39:00,
2013-01-29 20:44:00,53.4,52.9,28.67,SW,225,0.0,0.0,98,0.00,,---,0.00,VWS V14.01,2013-01-30 02:44:00,
2013-01-29 20:49:00,53.2,52.7,28.67,SW,225,1.6,2.5,98,0.00,,---,0.00,VWS V14.01,2013-01-30 02:49:00,
2013-01-29 20:54:00,53.2,52.7,28.67,SW,225,2.0,2.5,98,0.00,,---,0.00,VWS V14.01,2013-01-30 02:54:00,
2013-01-29 20:59:00,53.2,52.7,28.67,SSW,202,1.3,2.5,98,0.00,,---,0.00,VWS V14.01,2013-01-30 02:59:00,
2013-01-29 21:04:00,53.1,52.5,28.70,South,180,0.0,0.0,98,0.00,,---,0.00,VWS V14.01,2013-01-30 03:04:00,
2013-01-29 21:09:00,53.1,52.5,28.70,SW,225,0.0,0.0,98,0.00,,---,0.00,VWS V14.01,2013-01-30 03:09:00,
2013-01-29 21:14:00,53.1,52.5,28.70,SW,225,0.0,0.0,98,0.00,,---,0.00,VWS V14.01,2013-01-30 03:14:00,
2013-01-29 21:19:00,53.1,52.5,28.70,SW,225,0.0,0.0,98,0.00,,---,0.00,VWS V14.01,2013-01-30 03:19:00,
2013-01-29 21:24:00,53.1,52.5,28.70,SSW,202,2.2,2.2,98,0.00,,---,0.00,VWS V14.01,2013-01-30 03:24:00,
2013-01-29 21:29:00,53.1,52.5,28.70,SSW,202,0.0,2.2,98,0.00,,---,0.00,VWS V14.01,2013-01-30 03:29:00,
2013-01-29 21:34:00,53.1,52.5,28.70,South,180,2.7,2.7,98,0.00,,---,0.00,VWS V14.01,2013-01-30 03:34:00,
2013-01-29 21:40:00,53.1,52.5,28.70,South,180,1.3,1.6,98,0.00,,---,0.00,VWS V14.01,2013-01-30 03:40:00,
2013-01-29 21:45:00,53.1,52.5,28.70,SSE,158,0.0,1.3,98,0.00,,---,0.00,VWS V14.01,2013-01-30 03:45:00,
2013-01-29 21:50:00,53.1,52.5,28.70,South,180,2.2,3.8,98,0.00,,---,0.00,VWS V14.01,2013-01-30 03:50:00,
2013-01-29 21:55:00,53.1,52.5,28.70,South,180,2.9,2.9,98,0.00,,---,0.00,VWS V14.01,2013-01-30 03:55:00,
2013-01-29 22:00:00,53.1,52.5,28.70,South,180,1.1,1.1,98,0.00,,---,0.00,VWS V14.01,2013-01-30 04:00:00,
2013-01-29 22:05:00,53.1,52.5,28.70,South,180,3.6,3.6,98,0.00,,---,0.00,VWS V14.01,2013-01-30 04:05:00,
2013-01-29 22:10:00,53.1,52.5,28.70,South,180,0.0,0.0,98,0.00,,---,0.00,VWS V14.01,2013-01-30 04:10:00,
2013-01-29 22:15:00,52.9,52.3,28.67,SSE,158,0.0,0.0,98,0.00,,---,0.00,VWS V14.01,2013-01-30 04:15:00,
2013-01-29 22:20:00,52.7,52.2,28.67,South,180,2.7,2.7,98,0.00,,---,0.00,VWS V14.01,2013-01-30 04:20:00,
2013-01-29 22:26:00,52.7,52.2,28.67,South,180,1.3,2.2,98,0.00,,---,0.00,VWS V14.01,2013-01-30 04:26:00,
2013-01-29 22:31:00,52.5,52.0,28.67,South,180,2.2,2.2,98,0.00,,---,0.00,VWS V14.01,2013-01-30 04:31:00,
2013-01-29 22:36:00,52.5,52.0,28.67,SE,135,2.0,2.0,98,0.00,,---,0.00,VWS V14.01,2013-01-30 04:36:00,
2013-01-29 22:41:00,52.3,51.8,28.67,SE,135,2.0,2.0,98,0.00,,---,0.00,VWS V14.01,2013-01-30 04:41:00,
2013-01-29 22:46:00,52.3,51.8,28.64,SSE,158,2.2,2.2,98,0.00,,---,0.00,VWS V14.01,2013-01-30 04:46:00,
2013-01-29 22:51:00,52.2,51.6,28.64,SE,135,1.3,1.3,98,0.00,,---,0.00,VWS V14.01,2013-01-30 04:51:00,
2013-01-29 22:56:00,52.2,51.6,28.64,SSW,202,2.2,2.2,98,0.00,,---,0.00,VWS V14.01,2013-01-30 04:56:00,
2013-01-29 23:00:00,52.0,51.4,28.64,SE,135,2.9,2.9,98,0.00,,---,0.00,VWS V14.01,2013-01-30 05:00:00,
2013-01-29 23:02:00,52.0,51.4,28.64,South,180,2.0,2.0,98,0.00,,---,0.00,VWS V14.01,2013-01-30 05:02:00,
2013-01-29 23:03:00,52.0,51.4,28.64,South,180,2.0,2.0,98,0.00,,---,0.00,VWS V14.01,2013-01-30 05:03:00,
2013-01-29 23:08:00,52.0,51.4,28.64,SE,135,2.0,2.0,98,0.00,,---,0.00,VWS V14.01,2013-01-30 05:08:00,
2013-01-29 23:13:00,52.0,51.4,28.64,SSE,158,2.0,2.2,98,0.00,,---,0.00,VWS V14.01,2013-01-30 05:13:00,
2013-01-29 23:18:00,52.0,51.4,28.61,SSW,202,2.9,3.4,98,0.00,,---,0.00,VWS V14.01,2013-01-30 05:18:00,
2013-01-29 23:23:00,51.8,51.3,28.61,SSE,158,2.7,2.7,98,0.00,,---,0.00,VWS V14.01,2013-01-30 05:23:00,
2013-01-29 23:28:00,51.8,51.3,28.61,SW,225,1.6,1.6,98,0.00,,---,0.00,VWS V14.01,2013-01-30 05:28:00,
2013-01-29 23:33:00,51.8,51.3,28.61,SSE,158,0.9,0.9,98,0.00,,---,0.00,VWS V14.01,2013-01-30 05:33:00,
2013-01-29 23:38:00,51.6,51.1,28.61,SE,135,1.6,1.6,98,0.00,,---,0.00,VWS V14.01,2013-01-30 05:38:00,
2013-01-29 23:43:00,51.6,51.1,28.61,South,180,2.0,2.5,98,0.00,,---,0.00,VWS V14.01,2013-01-30 05:43:00,
2013-01-29 23:48:00,51.6,51.1,28.61,South,180,0.0,0.0,98,0.00,,---,0.00,VWS V14.01,2013-01-30 05:48:00,
2013-01-29 23:53:00,51.6,51.1,28.61,SSE,158,1.1,3.1,98,0.00,,---,0.00,VWS V14.01,2013-01-30 05:53:00,
2013-01-29 23:58:00,51.6,51.1,28.61,SW,225,2.7,2.7,98,0.00,,---,0.00,VWS V14.01,2013-01-30 05:58:00,